Theta_e
282 282 281 281 282 282 281 281 282 283 284 284 283 282 281 280 279 278 278 277 278 278 279 279 279 279 279 279 280 280 280 281 281 281 282 282 283 283
281 281 281 281 281 281 281 280 280 281 282 282 281 281 281 280 279 278 277 277 276 277 278 277 277 277 277 278 278 277 277 278 279 279 279 280 280 281
281 281 280 280 280 280 280 280 280 280 280 280 280 280 280 279 279 277 276 276 276 276 276 276 276 275 276 275 275 275 276 276 276 276 276 277 278 279
280 280 279 279 279 279 279 279 279 279 279 280 280 280 279 279 278 276 275 276 275 274 274 274 274 274 273 273 273 273 274 273 273 273 274 275 276 277
279 279 278 279 279 279 278 278 279 279 279 279 280 279 279 277 276 275 275 274 273 273 272 272 273 272 271 271 271 271 271 271 271 272 273 274 274 275
278 278 278 278 278 278 277 277 278 278 279 279 279 278 277 276 275 274 273 272 271 271 271 271 270 269 269 269 269 269 269 270 271 271 272 273 273 274
278 277 277 277 276 276 276 276 277 278 278 278 277 276 275 274 273 272 271 271 270 270 269 267 267 267 267 268 267 268 269 270 270 271 271 272 272 273
278 278 277 277 277 276 276 277 277 278 277 276 275 274 273 272 271 270 270 269 269 268 267 266 267 266 267 266 267 268 269 269 269 270 270 271 271 271
278 278 277 277 276 276 276 277 277 276 275 274 273 272 271 270 269 269 268 268 267 266 266 266 266 266 266 266 266 267 268 268 269 269 270 270 270 271
278 277 277 276 276 276 277 276 275 274 273 272 271 271 270 269 268 267 267 266 265 265 265 265 266 265 265 265 265 266 267 267 268 268 269 269 270 270
277 277 276 276 276 276 276 274 273 273 272 271 270 269 268 268 267 266 265 264 264 264 264 265 265 264 264 264 264 265 265 266 267 267 268 268 268 268
277 277 276 276 276 276 274 272 271 272 271 269 267 266 266 265 265 265 264 264 263 263 264 264 264 263 263 263 264 263 264 264 265 266 266 267 267 266
277 277 276 276 275 274 273 271 271 271 268 266 266 265 265 265 264 264 263 263 262 262 263 263 263 262 262 263 263 263 263 264 264 264 264 264 265 266
277 276 275 274 272 271 270 270 269 267 266 265 264 265 264 263 263 262 262 262 262 261 262 262 262 262 262 262 262 264 263 264 264 263 263 264 265 265
275 274 273 271 270 269 268 268 266 265 264 263 263 263 263 262 261 262 262 262 262 262 262 262 262 263 262 263 263 263 264 263 263 265 265 265 265 265
273 271 271 270 269 268 267 266 265 264 262 262 262 262 261 261 261 261 262 262 261 261 262 262 263 263 263 263 263 263 263 264 265 265 265 265 265 266
271 270 269 268 268 267 266 265 264 263 262 262 261 261 261 261 261 261 261 261 261 261 262 262 262 262 262 262 262 263 264 265 264 264 265 266 266 267
269 268 268 267 267 266 264 263 263 262 261 261 260 259 260 260 260 260 260 260 260 261 261 261 261 260 261 262 263 264 264 264 264 265 266 266 267 267
267 267 266 266 265 264 263 262 261 261 260 260 259 259 259 259 259 259 259 260 260 260 260 260 259 260 261 261 262 262 263 263 265 266 266 266 267 267
266 265 264 264 263 262 261 261 260 260 259 259 259 259 258 258 258 258 258 259 259 258 258 259 260 260 260 260 260 261 263 265 265 266 266 267 267 267
264 264 263 262 262 261 261 260 260 259 259 258 259 258 258 257 257 257 257 257 257 258 258 258 259 259 259 260 261 262 263 264 265 265 266 267 267 268
263 263 262 262 261 261 260 260 259 259 259 258 258 258 258 257 257 257 257 257 257 257 257 258 258 259 260 260 261 262 263 264 264 265 266 266 268 268
263 263 262 262 261 261 260 260 259 259 259 259 259 258 258 257 257 257 256 256 256 256 257 257 258 259 259 260 262 263 263 264 264 264 265 266 267 268
Wind_Speed
13 12 11 10 9 8 7 6 4 3 5 5 7 15 19 19 19 22 22 23 26 25 25 26 30 32 33 31 30 29 33 34 36 35 35 34 34 34
10 9 9 8 7 6 4 4 4 5 4 11 17 19 20 21 20 22 23 24 24 23 27 31 32 34 33 31 30 35 37 36 36 35 35 35 36 36
8 8 8 6 5 5 5 5 6 7 11 16 18 19 20 21 21 22 22 23 22 24 28 31 33 34 29 31 36 38 37 36 36 35 35 36 36 37
7 6 5 5 4 5 6 8 8 11 13 17 19 19 19 20 21 22 24 20 24 26 29 30 32 25 31 38 37 37 36 36 35 36 37 39 40 41
4 4 4 5 5 6 8 10 11 12 14 17 20 19 20 21 22 21 21 25 25 26 30 31 21 28 36 34 33 33 33 36 38 40 43 44 43 43
3 4 4 4 4 6 9 11 12 15 16 18 18 19 20 21 22 23 24 25 26 27 29 22 25 33 30 32 29 30 35 37 43 44 43 43 43 42
4 4 4 7 7 7 10 12 13 15 16 17 17 20 19 20 21 23 25 27 25 28 26 27 30 27 30 25 33 35 39 40 41 42 41 42 44 44
3 3 4 7 6 10 11 12 14 13 13 16 18 19 19 21 21 24 25 25 19 22 28 29 26 29 25 32 35 38 39 39 38 43 45 45 46 46
3 4 5 5 9 10 12 13 4 9 11 15 17 18 21 22 24 23 22 22 25 29 26 27 28 25 31 36 38 38 37 38 43 45 44 43 44 45
5 5 6 8 8 11 16 6 7 10 13 12 14 19 21 22 19 19 22 23 25 23 21 23 23 29 35 40 40 35 39 44 45 44 43 44 45 44
6 6 7 7 9 13 7 6 10 14 13 14 19 20 19 18 16 18 17 20 22 23 25 21 26 31 31 38 38 37 41 41 45 45 44 46 44 42
7 6 8 8 11 8 10 10 12 16 17 21 23 19 16 16 15 13 16 18 19 16 16 21 28 23 13 33 42 40 37 45 46 46 46 43 42 40
8 9 7 6 7 10 11 10 15 19 22 19 19 18 16 15 15 15 16 16 19 22 31 23 25 31 21 28 40 38 41 46 47 48 44 44 41 39
9 8 6 7 8 10 11 13 14 16 17 18 17 16 17 17 18 20 23 21 21 27 35 33 27 29 30 33 33 45 44 46 43 50 42 44 43 41
7 8 11 9 9 13 13 12 14 15 16 15 15 16 17 20 24 22 22 23 24 27 29 30 29 32 31 34 36 42 45 49 47 43 44 44 43 41
10 7 9 11 10 11 12 12 14 14 16 17 17 19 20 20 21 21 23 24 26 32 33 30 28 28 32 35 38 40 45 37 49 47 45 48 44 39
11 13 13 10 10 11 12 14 14 14 15 16 17 18 20 19 20 20 22 25 23 27 33 37 37 34 34 34 36 39 42 44 47 48 47 48 44 39
11 10 10 10 11 12 14 15 15 16 16 19 21 19 19 20 21 22 23 22 24 27 30 33 36 38 37 32 29 36 40 42 47 47 47 40 49 42
9 9 10 11 13 14 15 15 17 18 21 21 19 20 19 20 21 22 23 23 25 26 30 32 32 29 16 18 45 32 36 44 43 45 42 43 43 49
11 12 13 14 15 16 17 18 20 22 21 21 22 23 23 22 21 22 22 23 25 28 32 32 30 29 26 21 33 53 41 42 42 44 47 46 45 50
14 15 16 18 19 19 20 21 21 24 24 24 24 23 24 22 23 23 24 25 26 25 27 32 36 39 39 38 28 39 47 47 46 49 47 43 36 37
18 19 21 21 22 22 22 23 24 24 24 23 24 25 25 24 24 26 25 25 25 26 30 35 38 35 34 31 30 40 46 55 57 52 50 43 40 22
21 22 24 25 24 24 24 25 26 28 28 28 28 28 27 26 29 30 29 27 26 27 30 33 34 33 33 32 35 38 43 48 51 55 63 62 58 54
Wind_Direction
75 73 71 63 59 52 46 35 13 321 321 339 345 327 334 332 332 330 332 330 331 331 332 329 328 330 329 327 325 324 321 316 316 313 310 308 307 305
84 79 70 62 54 48 34 19 349 317 290 335 324 326 327 326 324 328 326 324 324 325 324 325 325 326 325 325 322 321 319 316 313 312 309 307 305 302
80 69 61 56 44 24 8 337 323 317 303 306 314 319 320 320 323 323 321 319 318 319 318 320 320 321 322 321 319 318 317 315 313 311 308 306 304 301
73 67 56 40 20 3 349 333 320 318 310 307 312 317 316 320 319 321 320 318 319 317 316 317 316 318 320 319 319 317 316 315 314 312 310 306 303 300
79 63 35 20 2 350 340 331 322 312 307 304 305 313 321 324 320 318 318 317 316 317 316 318 317 318 318 318 317 314 316 316 313 311 308 305 302 299
48 36 17 4 349 341 336 327 320 314 312 312 317 322 324 323 320 325 320 317 318 321 319 317 316 319 318 318 316 315 315 313 310 307 305 302 301 298
9 348 341 321 318 324 326 319 318 314 320 325 324 322 320 329 329 325 317 317 318 320 322 322 318 319 317 318 315 317 317 314 312 310 307 304 301 298
359 337 329 324 323 314 316 309 305 310 320 325 320 316 324 327 325 323 320 320 320 323 323 315 318 315 312 315 316 320 320 317 314 311 307 303 301 299
341 299 310 310 312 310 316 317 330 338 328 320 316 320 321 322 321 321 317 313 308 312 318 313 316 309 315 311 314 319 317 316 315 312 308 304 302 299
303 304 303 300 311 318 315 323 335 323 319 312 310 311 312 314 314 311 310 306 305 311 322 307 317 312 313 308 311 317 316 315 312 312 312 307 303 300
297 297 291 312 327 321 355 343 326 320 317 305 308 308 310 310 314 317 318 318 313 316 317 304 310 310 312 307 310 317 318 316 311 311 311 311 308 304
304 306 318 302 314 335 356 337 322 319 314 308 310 314 314 316 317 313 309 307 307 311 313 319 313 319 313 312 310 314 314 312 314 311 313 312 312 310
319 320 310 299 318 325 320 313 314 312 306 311 314 316 315 311 310 307 303 302 300 289 297 312 301 303 299 302 305 310 312 309 310 309 311 311 311 306
313 300 291 305 316 313 311 316 313 311 315 316 314 311 313 312 309 303 307 307 291 283 303 304 286 291 294 296 296 308 311 307 309 305 304 306 306 305
301 298 299 309 310 308 303 316 315 319 316 311 307 307 307 304 308 309 306 303 299 297 299 303 289 291 289 290 293 301 307 306 307 305 309 306 304 301
308 308 310 312 308 307 312 310 313 312 312 308 302 302 303 305 304 308 308 309 308 306 312 308 304 299 295 295 296 297 300 298 307 308 308 304 303 300
317 311 311 309 312 311 307 308 311 309 305 304 301 301 300 302 301 306 305 306 299 302 306 311 313 309 300 295 294 298 302 306 306 308 311 308 306 304
311 299 308 310 307 307 306 307 309 308 305 300 302 301 296 298 300 302 303 299 298 301 303 307 311 313 310 303 297 302 304 302 304 307 312 308 306 310
313 308 304 304 303 302 302 303 303 303 302 308 301 296 295 294 297 297 298 298 300 302 302 306 308 309 310 308 312 313 306 302 308 310 311 308 302 306
309 306 306 304 300 299 301 301 303 304 303 301 299 299 298 294 293 292 293 295 299 303 305 309 310 310 310 303 306 308 314 312 315 313 312 310 305 305
310 308 306 303 303 303 302 301 300 300 299 298 302 302 304 301 290 289 291 294 297 299 300 303 307 309 305 307 304 309 313 317 318 315 315 315 313 312
312 309 309 305 304 303 303 302 300 301 301 301 300 297 297 296 288 290 292 294 297 297 296 300 309 313 313 311 306 310 315 319 322 324 323 323 322 320
310 309 307 305 304 304 301 301 300 301 301 301 300 300 298 295 300 296 295 293 293 297 300 305 312 314 310 311 311 312 318 322 325 327 326 332 332 329